Regional Weather Roundup
Issued by NWS

Home | Current Version | Previous Version | Text Only | Print | Product List | Glossary On
Versions: 1 2 3 4 5 6 7 8 9 10 11 12 13 14 15 16 17 18 19 20 21 22 23 24 25 26 27 28 29 30 31 32 33 34 35 36 37 38 39 40 41 42 43 44 45 46 47 48 49 50
937
ASUS46 KPQR 050610
RWROR

OREGON REGIONAL WEATHER ROUNDUP
NATIONAL WEATHER SERVICE PORTLAND OR
1100 PM PDT WED MAY 04 2016

NOTE: "FAIR" INDICATES FEW OR NO CLOUDS BELOW 12,000 FEET WITH
NO SIGNIFICANT WEATHER AND/OR OBSTRUCTIONS TO VISIBILITY.

ORZ001>013-050700-
NORTHWEST OREGON


CITY           SKY/WX    TMP DP  RH WIND       PRES   REMARKS
ASTORIA        CLOUDY    52  45  77 N10       30.04S
6HR MIN TEMP:  52; 6HR MAX TEMP:  55; 6HR PCP: TRACE;

NEWPORT        CLOUDY    52  46  82 N14G22    30.06R
PORTLAND       CLOUDY    57  49  74 NW10      29.99R
6HR MIN TEMP:  57; 6HR MAX TEMP:  62;

VANCOUVER WA   CLOUDY    57  49  74 NW6       29.98S
6HR MIN TEMP:  56; 6HR MAX TEMP:  60;

SCAPPOOSE      MOCLDY    55  48  77 NW3       29.99R
6HR MIN TEMP:  54; 6HR MAX TEMP:  60;

HILLSBORO      CLOUDY    55  48  77 NW9       29.99S
6HR MIN TEMP:  55; 6HR MAX TEMP:  61;

AURORA         CLOUDY    55  49  80 N5        30.01R
6HR MIN TEMP:  55; 6HR MAX TEMP:  62;

MCMINNVILLE    CLOUDY    57  48  72 NE8       30.00R
6HR MIN TEMP:  57; 6HR MAX TEMP:  60;

SALEM          CLOUDY    57  50  77 N9        29.98R
6HR MIN TEMP:  57; 6HR MAX TEMP:  63;

CORVALLIS        N/A     54  48  82 NW12      30.00S
EUGENE         CLOUDY    56  51  84 NE3       29.98S
6HR MIN TEMP:  55; 6HR MAX TEMP:  65;

$$

ORZ021-028-050700-
SOUTHWEST OREGON


CITY           SKY/WX    TMP DP  RH WIND       PRES   REMARKS
NORTH BEND     CLOUDY    54  48  82 N21G31    30.02S
6HR MIN TEMP:  54; 6HR MAX TEMP:  54;

BROOKINGS      MOCLDY    54  52  93 CALM      29.90S
ROSEBURG       CLOUDY    59  52  77 CALM      29.96S
6HR MIN TEMP:  58; 6HR MAX TEMP:  60; 6HR PCP:  0.01;

SEXTON SUMMIT  FOG       48  47  96 VRB5      29.95S VSB 1/4
6HR MIN TEMP:  46; 6HR MAX TEMP:  52; 6HR PCP:  0.18;

MEDFORD        MOCLDY    57  54  89 CALM      29.93R
6HR MIN TEMP:  56; 6HR MAX TEMP:  70; 6HR PCP:  0.03;

$$

ORZ014>016-041-050700-
COLUMBIA GORGE


CITY           SKY/WX    TMP DP  RH WIND       PRES   REMARKS
TROUTDALE      CLOUDY    58  49  72 CALM      29.99R
6HR MIN TEMP:  58; 6HR MAX TEMP:  63;

HOOD RIVER     CLOUDY    55  54  94 CALM      29.94S
THE DALLES     CLOUDY    59  51  75 NW10      29.91R
6HR MIN TEMP:  58; 6HR MAX TEMP:  68; 6HR PCP:  0.23;

$$

ORZ029>031-041-044-049-050-061>064-502-503-505>511-050700-
EASTERN OREGON


CITY           SKY/WX    TMP DP  RH WIND       PRES   REMARKS
REDMOND        CLOUDY    53  50  89 W5        29.95S
6HR MIN TEMP:  52; 6HR MAX TEMP:  58; 6HR PCP:  0.03;

BEND           CLOUDY    52  50  93 CALM      29.96S
PRINEVILLE     CLOUDY    50  50 100 CALM      29.96R
KLAMATH FALLS  CLOUDY    49  46  90 E7        29.96R
6HR MIN TEMP:  49; 6HR MAX TEMP:  63; 6HR PCP:  0.06;

LAKEVIEW       CLOUDY    46  43  87 N7        29.96F
HERMISTON      CLOUDY    60  55  83 SW6       29.89R
6HR MIN TEMP:  59; 6HR MAX TEMP:  82; 6HR PCP:  0.59;

PENDLETON      CLOUDY    56  52  86 SE5       29.90S
6HR MIN TEMP:  55; 6HR MAX TEMP:  77; 6HR PCP:  0.15;

JOHN DAY       PTCLDY    55  48  78 SW9       29.97R
MEACHAM        NOT AVBL
LA GRANDE      MOCLDY    57  41  54 W10       29.93R
6HR MIN TEMP:  57; 6HR MAX TEMP:  75;

BAKER CITY     PTCLDY    56  42  59 NW13G22   29.91R
6HR MIN TEMP:  55; 6HR MAX TEMP:  76;

BURNS          CLOUDY    54  43  66 SW8       29.98R
6HR MIN TEMP:  48; 6HR MAX TEMP:  56; 6HR PCP:  0.01;

ROME             N/A     61  38  42 NE10      29.88R
6HR MIN TEMP:  61; 6HR MAX TEMP:  76;

ONTARIO        CLOUDY    65  44  46 W13       29.80S
6HR MIN TEMP:  63; 6HR MAX TEMP:  81;

$$




USA.gov is the U.S. government's official web portal to all federal, state and local government web resources and services.